[[{"header":{"parameterUnit":"m.s-1","parameterCategory":1,"la1":30.2991,"la2":30.254,"lo1":-89.0895,"lo2":-89.0444,"dy":0.0017,"dx":0.0017,"nx":28,"ny":28,"refTime":"2025-04-06T03:00:00:Z","depth":0,"parameterNumber":2,"parameterNumberName":"U-component_of_WINDS"},"data":[0,0,0,0,0,0,0,0,0,0,0,0,0,0,0,0,0,0,0,0,0,0,0,0,0,0,0,0,0,0,0,0,0,0,0,0,0,0,0,0,0,0,0,0,0,0,0,0,0,0,0,0,0,0,0,0,0,0,3.4478,3.4478,0,3.4543,3.4543,3.4544,3.4519,3.4517,3.4516,3.4514,3.4581,3.4584,3.4588,0,0,0,0,0,0,0,0,0,0,0,0,0,3.4334,3.4337,3.4478,3.4478,3.4479,3.4542,3.4543,3.4544,3.4519,3.4517,3.4515,3.4514,3.458,3.4584,3.4588,0,0,0,0,0,0,0,0,0,0,0,0,0,3.4397,3.4337,3.4477,3.4474,3.4475,3.4542,3.4543,3.4544,3.4519,3.4517,3.4515,3.4513,3.4579,3.4584,3.4588,3.4663,0,0,3.4603,3.4605,0,0,0,0,0,0,0,0,3.4394,3.4403,3.4474,3.4475,3.4475,3.452,3.4517,3.4584,3.452,3.4502,3.4514,3.4512,3.4563,3.4569,3.4586,3.4667,3.4669,3.4604,3.4606,3.4608,3.461,0,0,0,0,0,0,0,3.4389,3.44,3.4503,3.4475,3.4476,3.447,3.4477,3.453,3.4545,3.4504,3.4502,3.451,3.4563,3.4581,3.4587,3.467,3.4603,3.4608,3.4611,3.4612,3.4818,3.482,0,0,0,0,0,0,3.4385,3.4396,3.4501,3.4505,3.4428,3.4475,3.4482,3.4508,3.4544,3.4547,3.4512,3.4509,3.4574,3.4582,3.459,3.4681,3.4608,3.4613,3.4616,3.4815,3.4819,3.4821,0,0,0,0,0,0,3.4382,3.4394,3.4499,3.445,3.4463,3.448,3.4509,3.451,3.4529,3.455,3.4553,3.4528,3.4573,3.4583,3.4646,3.4683,3.4615,3.4619,3.4812,3.4816,3.482,3.4863,0,0,0,0,0,0,3.4377,3.4393,3.4421,3.4451,3.4466,3.4553,3.4511,3.4513,3.4537,3.4534,3.4566,3.4569,3.4572,3.4639,3.4651,3.4688,3.4623,3.4809,3.4814,3.4819,3.4859,3.4868,3.4877,0,0,0,0,0,3.4372,3.4431,3.4423,3.4436,3.4501,3.4555,3.4564,3.4565,3.454,3.4569,3.4583,3.4568,3.4677,3.4645,3.4658,3.4698,3.4807,3.4813,3.4818,3.4855,3.4866,3.4876,0,0,0,0,0,0,3.4404,3.4434,3.4426,3.4495,3.4523,3.4551,3.4587,3.4577,3.4613,3.4608,3.4609,3.4616,3.4681,3.4696,3.466,3.4774,3.4738,3.4747,3.4762,3.4773,3.4782,3.4777,3.4627,0,0,0,0,0,3.4419,3.446,3.4485,3.4544,3.4558,3.457,3.4594,3.4593,3.4622,3.4633,3.4651,3.468,3.4721,3.4748,3.4786,3.4861,3.4869,3.4895,3.4904,3.4911,3.4919,3.4961,3.4973,3.484,3.484,3.484,0,0,3.4451,3.4472,3.4498,3.4551,3.4572,3.4615,3.458,3.4627,3.4659,3.464,3.4701,3.4716,3.4748,3.4817,3.4849,3.4832,3.4957,3.4919,3.4924,3.4928,3.4968,3.4981,3.4992,3.4844,3.4844,3.4843,0,0,3.453,3.4551,3.4602,3.4625,3.4658,3.4666,3.4679,3.4709,3.4718,3.4779,3.4766,3.4805,3.4875,3.4899,3.492,3.5012,3.5,3.5024,3.507,3.5112,3.5122,3.5131,3.5165,3.5177,3.5032,3.5032,3.5032,0,3.4565,3.4629,3.463,3.4679,3.4703,3.4688,3.4742,3.4764,3.4808,3.4825,3.4805,3.4894,3.4915,3.499,3.5013,3.503,3.5046,3.502,3.512,3.513,3.5139,3.5171,3.5183,3.5035,3.5034,3.5034,3.5034,0,3.4671,3.4716,3.4754,3.4798,3.4826,3.4877,3.4886,3.4915,3.4913,3.4923,3.4987,3.5011,3.5055,3.5074,3.5071,3.515,3.5138,3.512,3.5084,3.5154,3.5184,3.5196,3.5039,3.5038,3.5037,3.5036,0,0,3.4771,3.4816,3.483,3.485,3.4886,3.4921,3.4972,3.5016,3.5041,3.5072,3.5116,3.5176,3.516,3.5184,3.5185,3.5221,3.5294,3.5198,3.5199,3.5216,3.5383,3.5397,3.5411,3.5286,3.5289,3.529,3.5381,0,3.4854,3.4943,3.4946,3.5027,3.507,3.5058,3.5102,3.513,3.5142,3.518,3.5193,3.5237,3.5211,3.5226,3.5262,3.5277,3.5327,3.5271,3.5327,3.5329,3.5319,3.5427,3.5441,3.5525,3.5392,3.5394,3.5396,0,3.4962,3.4997,3.5083,3.5115,3.5133,3.5173,3.5214,3.525,3.5282,3.5288,3.5317,3.5313,3.5366,3.5329,3.5403,3.5365,3.5388,3.54,3.5403,3.5408,3.5367,3.5435,3.5552,3.5564,3.5414,3.5413,3.5411,0,3.5027,3.5096,3.5157,3.5174,3.5213,3.5242,3.5259,3.5289,3.5315,3.5352,3.5369,3.5411,3.5434,3.5467,3.5475,3.5447,3.555,3.5513,3.5557,3.5557,3.5579,3.5577,3.5701,3.5594,3.5594,3.5594,3.5593,0,3.5119,3.5172,3.5187,3.5224,3.5284,3.5288,3.5347,3.5363,3.539,3.5431,3.5423,3.5462,3.547,3.551,3.5517,3.5578,3.5589,3.5596,3.5597,3.5597,3.5596,3.5612,3.5606,3.5597,3.5596,3.5596,3.5595,0,3.5202,3.5214,3.5279,3.5311,3.532,3.5363,3.539,3.5427,3.5438,3.549,3.5503,3.5522,3.5569,3.5581,3.5637,3.5642,3.5715,3.571,3.5704,3.5703,3.5747,3.5743,3.5885,3.5905,3.5785,3.5786,3.5787,0,3.526,3.53,3.5337,3.5364,3.5383,3.5426,3.5453,3.546,3.5489,3.553,3.5561,3.5608,3.5646,3.5723,3.5742,3.5786,3.5783,3.583,3.5789,3.5788,3.5784,3.5782,3.5787,3.5837,3.5839,3.584,3.5841,0,3.5362,3.5366,3.5405,3.5448,3.5481,3.5514,3.5546,3.5569,3.558,3.5614,3.5662,3.5692,3.5751,3.5798,3.5842,3.5861,3.5854,3.5853,3.5866,3.5866,3.5861,3.5865,3.5725,3.585,3.5849,3.5848,3.5848,3.5847,3.5434,3.547,3.5502,3.5547,3.5572,3.5603,3.5639,3.5656,3.5696,3.5744,3.5746,3.58,3.5833,3.5892,3.5914,3.5956,3.5942,3.596,3.5965,3.5969,3.5973,3.5854,3.5964,3.5964,3.5964,3.5964,3.5964,0,3.5536,3.5556,3.5598,3.5643,3.5679,3.5669,3.5704,3.5735,3.5782,3.5814,3.5851,3.5909,3.5955,3.5978,3.6025,3.6054,3.6052,3.6066,3.6064,3.6069,3.5983,3.5968,3.6068,3.6068,3.6068,3.6068,3.6068,3.6067,3.5593,3.5654,3.5663,3.5737,3.5757,3.581,3.5831,3.586,3.5885,3.5949,3.5988,3.6003,3.6031,3.608,3.6123,3.6128,3.6146,3.6162,3.6166,3.6086,3.6075,3.6065,3.605,3.6166,3.6166,3.6249,3.625,3.625]},{"header":{"parameterUnit":"m.s-1","parameterCategory":1,"la1":30.2991,"la2":30.254,"lo1":-89.0895,"lo2":-89.0444,"dy":0.0017,"dx":0.0017,"nx":28,"ny":28,"refTime":"2025-04-06T03:00:00:Z","depth":0,"parameterNumber":3,"parameterNumberName":"V-component_of_WINDS"},"data":[0,0,0,0,0,0,0,0,0,0,0,0,0,0,0,0,0,0,0,0,0,0,0,0,0,0,0,0,0,0,0,0,0,0,0,0,0,0,0,0,0,0,0,0,0,0,0,0,0,0,0,0,0,0,0,0,0,0,-5.7288,-5.7289,0,-5.7394,-5.7395,-5.7396,-5.737,-5.7368,-5.7366,-5.7364,-5.747,-5.7474,-5.7479,0,0,0,0,0,0,0,0,0,0,0,0,0,-5.7062,-5.7066,-5.7288,-5.7289,-5.7291,-5.7394,-5.7395,-5.7397,-5.7371,-5.7368,-5.7366,-5.7363,-5.7468,-5.7474,-5.748,0,0,0,0,0,0,0,0,0,0,0,0,0,-5.7163,-5.7068,-5.7288,-5.729,-5.7291,-5.7393,-5.7395,-5.7397,-5.7371,-5.7368,-5.7365,-5.7362,-5.7466,-5.7473,-5.748,-5.7585,0,0,-5.7502,-5.7505,0,0,0,0,0,0,0,0,-5.7157,-5.7171,-5.7288,-5.729,-5.7292,-5.7366,-5.7354,-5.746,-5.7372,-5.7341,-5.7364,-5.7361,-5.7438,-5.7447,-5.7473,-5.759,-5.7595,-5.7503,-5.7507,-5.751,-5.7512,0,0,0,0,0,0,0,-5.715,-5.7167,-5.733,-5.729,-5.7292,-5.7286,-5.7297,-5.7374,-5.7405,-5.7343,-5.7342,-5.7355,-5.7438,-5.7467,-5.7476,-5.7596,-5.7502,-5.7509,-5.7513,-5.7516,-5.7807,-5.781,0,0,0,0,0,0,-5.7142,-5.7161,-5.7326,-5.7333,-5.7216,-5.7292,-5.7304,-5.7345,-5.7404,-5.741,-5.7357,-5.7353,-5.7456,-5.7467,-5.7479,-5.7607,-5.751,-5.7516,-5.7521,-5.7803,-5.7808,-5.7811,0,0,0,0,0,0,-5.7138,-5.7157,-5.7322,-5.7247,-5.7267,-5.7299,-5.7345,-5.7349,-5.7377,-5.7415,-5.742,-5.7381,-5.7454,-5.7469,-5.756,-5.761,-5.752,-5.7526,-5.7799,-5.7805,-5.7809,-5.7863,0,0,0,0,0,0,-5.7131,-5.7156,-5.7196,-5.7248,-5.7271,-5.7401,-5.7348,-5.7353,-5.739,-5.7386,-5.7438,-5.7444,-5.7453,-5.7549,-5.7567,-5.7619,-5.7532,-5.7795,-5.7802,-5.7808,-5.7857,-5.787,-5.7881,0,0,0,0,0,-5.7123,-5.7206,-5.7198,-5.7218,-5.7323,-5.7404,-5.7418,-5.7427,-5.7394,-5.7435,-5.7459,-5.7442,-5.7602,-5.7559,-5.7578,-5.7633,-5.7792,-5.78,-5.7807,-5.7852,-5.7867,-5.788,0,0,0,0,0,0,-5.7158,-5.7213,-5.7205,-5.7307,-5.7352,-5.74,-5.7452,-5.7443,-5.7496,-5.749,-5.7498,-5.751,-5.7603,-5.7627,-5.7578,-5.7739,-5.7692,-5.7704,-5.7719,-5.7734,-5.7746,-5.7738,-5.7538,0,0,0,0,0,-5.7178,-5.7241,-5.7285,-5.7371,-5.7394,-5.7419,-5.7455,-5.7458,-5.7504,-5.7523,-5.7553,-5.7598,-5.7658,-5.7698,-5.7755,-5.7861,-5.7872,-5.7908,-5.792,-5.7929,-5.7939,-5.7998,-5.8015,-5.7837,-5.7837,-5.7837,0,0,-5.7219,-5.7257,-5.7295,-5.7379,-5.7413,-5.7478,-5.7435,-5.7504,-5.7552,-5.7533,-5.7621,-5.7645,-5.7695,-5.7794,-5.7839,-5.7817,-5.7991,-5.7939,-5.7946,-5.7951,-5.8008,-5.8025,-5.804,-5.7842,-5.7841,-5.7841,0,0,-5.7327,-5.7362,-5.7438,-5.7474,-5.7528,-5.7545,-5.7563,-5.7614,-5.763,-5.7718,-5.7706,-5.7762,-5.7866,-5.7903,-5.7935,-5.806,-5.8046,-5.8078,-5.8139,-5.8196,-5.821,-5.8223,-5.8268,-5.8284,-5.8088,-5.8088,-5.8089,0,-5.7371,-5.7468,-5.7478,-5.7549,-5.7587,-5.7574,-5.7651,-5.7686,-5.7755,-5.7781,-5.7755,-5.7887,-5.7919,-5.8027,-5.8058,-5.8085,-5.8106,-5.8072,-5.8208,-5.822,-5.8232,-5.8275,-5.8292,-5.8092,-5.8092,-5.8091,-5.8091,0,-5.752,-5.7588,-5.7643,-5.7712,-5.7755,-5.7829,-5.785,-5.7893,-5.7893,-5.7913,-5.8004,-5.8043,-5.8109,-5.8135,-5.8135,-5.8244,-5.8229,-5.8205,-5.8159,-5.8252,-5.8293,-5.8309,-5.8097,-5.8096,-5.8095,-5.8094,0,0,-5.7651,-5.7727,-5.7747,-5.7779,-5.7838,-5.7891,-5.7964,-5.803,-5.8067,-5.8116,-5.8178,-5.8267,-5.8247,-5.8284,-5.8288,-5.8338,-5.8436,-5.8309,-5.831,-5.8332,-5.8559,-5.8576,-5.8595,-5.8427,-5.8431,-5.8433,-5.8555,0,-5.7765,-5.7896,-5.7908,-5.8025,-5.8088,-5.8078,-5.8142,-5.8186,-5.8206,-5.8263,-5.8285,-5.8348,-5.8316,-5.8339,-5.8388,-5.8413,-5.8481,-5.8405,-5.8485,-5.8488,-5.8473,-5.8616,-5.8634,-5.8746,-5.857,-5.8573,-5.8575,0,-5.7914,-5.797,-5.8094,-5.8146,-5.8173,-5.8231,-5.8293,-5.8347,-5.8396,-5.8408,-5.845,-5.8449,-5.8524,-5.8476,-5.8581,-5.8529,-5.8562,-5.858,-5.8584,-5.8592,-5.8537,-5.8627,-5.8782,-5.8799,-5.86,-5.8598,-5.8596,0,-5.7998,-5.8104,-5.8192,-5.8219,-5.8283,-5.8324,-5.8352,-5.8398,-5.8438,-5.8492,-5.8518,-5.858,-5.8614,-5.8662,-5.8677,-5.864,-5.8782,-5.8734,-5.8793,-5.8793,-5.8823,-5.8821,-5.8986,-5.8845,-5.8844,-5.8844,-5.8844,0,-5.8124,-5.82,-5.8231,-5.8285,-5.8371,-5.8384,-5.8468,-5.8494,-5.8536,-5.8595,-5.8589,-5.8645,-5.8661,-5.872,-5.8732,-5.8818,-5.8833,-5.8844,-5.8846,-5.8845,-5.8843,-5.8867,-5.8859,-5.8849,-5.8848,-5.8847,-5.8846,0,-5.8232,-5.8255,-5.8351,-5.8404,-5.8419,-5.848,-5.8525,-5.8577,-5.8598,-5.8673,-5.8691,-5.8723,-5.8792,-5.8812,-5.8894,-5.8902,-5.9003,-5.8998,-5.8986,-5.8986,-5.9045,-5.9039,-5.923,-5.9256,-5.9098,-5.91,-5.9101,0,-5.831,-5.8369,-5.8429,-5.8469,-5.8499,-5.8563,-5.8604,-5.862,-5.8662,-5.8724,-5.8769,-5.8838,-5.8893,-5.9003,-5.9033,-5.9096,-5.9093,-5.9156,-5.9102,-5.9099,-5.9094,-5.9091,-5.9097,-5.9166,-5.9167,-5.9169,-5.917,0,-5.8447,-5.8457,-5.8516,-5.8581,-5.863,-5.8681,-5.873,-5.8763,-5.8786,-5.8834,-5.8905,-5.8948,-5.9033,-5.9101,-5.9166,-5.9194,-5.9186,-5.9187,-5.9204,-5.9202,-5.9194,-5.92,-5.9014,-5.9182,-5.9181,-5.918,-5.9179,-5.9179,-5.8543,-5.8596,-5.8647,-5.8714,-5.8753,-5.8799,-5.8852,-5.888,-5.8939,-5.9011,-5.9016,-5.9093,-5.9142,-5.9228,-5.9261,-5.9321,-5.9302,-5.9327,-5.9333,-5.9339,-5.9344,-5.9185,-5.9332,-5.9332,-5.9332,-5.9332,-5.9331,0,-5.868,-5.8713,-5.8775,-5.8845,-5.8898,-5.8887,-5.8942,-5.8986,-5.9055,-5.9102,-5.9157,-5.9239,-5.9306,-5.9342,-5.9408,-5.945,-5.9448,-5.9467,-5.9464,-5.947,-5.9357,-5.9336,-5.9467,-5.9467,-5.9467,-5.9467,-5.9467,-5.9467,-5.8758,-5.8847,-5.8862,-5.8971,-5.9003,-5.9079,-5.9111,-5.9154,-5.9192,-5.9285,-5.9341,-5.9364,-5.9407,-5.9477,-5.9538,-5.9547,-5.9571,-5.9592,-5.9599,-5.9492,-5.9478,-5.9465,-5.9445,-5.9598,-5.9598,-5.9708,-5.9709,-5.971]}]]